DW7816 Weather Reports


Display with metric or nautical units.
time (UTC)temp
F
wind
direction
speed
MPH
gust
MPH
rain 1hr
in
rain 24hr
in
rain mn
in
humidity
%
barometer
mb
20260509084000 48 118 0.0 0.0 0.00 0.00 0.00 97 1010.1
20260509082944 48 118 0.0 0.0 0.00 0.00 0.00 97 1009.9
20260509081942 49 118 0.0 0.0 0.00 0.00 0.00 97 1009.8
20260509080925 49 118 0.0 0.0 0.00 0.00 0.00 96 1009.9
20260509075850 50 118 0.0 0.0 0.00 0.00 0.00 97 1009.9
20260509074829 50 118 0.0 0.0 0.00 0.00 0.00 97 1009.9
20260509073827 50 118 0.0 0.0 0.00 0.00 0.00 96 1010.1
20260509072835 51 118 0.0 0.0 0.00 0.00 0.00 96 1010.0
20260509071804 51 118 0.0 0.0 0.00 0.00 0.00 96 1010.1
20260509070829 51 118 0.0 0.0 0.00 0.00 0.00 96 1010.0
20260509064655 52 118 0.0 0.0 0.00 0.00 0.00 96 1010.0
20260509062621 53 118 0.0 0.0 0.00 0.00 0.00 95 1010.1
20260509061625 53 118 0.0 0.0 0.00 0.00 0.00 95 1010.2
20260509060611 54 118 0.0 0.0 0.00 0.00 0.00 95 1010.2
20260509054428 55 118 0.0 0.0 0.00 0.00 0.00 94 1010.1
20260509053429 56 118 0.0 0.0 0.00 0.00 0.00 93 1010.1
20260509051313 57 118 0.0 0.0 0.00 0.00 0.00 92 1010.1
20260509050257 58 118 0.0 0.0 0.00 0.00 0.00 91 1010.0
20260509045251 59 118 0.0 0.0 0.00 0.00 0.00 91 1010.0
20260509044243 59 118 0.0 0.0 0.00 0.00 0.00 90 1010.0
20260509043242 60 118 0.0 0.0 0.00 0.00 0.00 89 1010.1
20260509041133 61 118 0.0 0.0 0.00 0.00 0.00 88 1009.9
20260509040106 61 38 0.0 1.0 0.00 0.00 0.00 88 1010.0
20260509035055 62 115 0.0 4.0 0.00 0.00 0.00 86 1010.2
20260509034029 62 29 3.0 9.0 0.00 0.00 0.00 85 1010.4
20260509033024 63 154 4.0 10.0 0.00 0.00 0.00 82 1010.2
20260509031954 64 57 4.0 10.0 0.00 0.00 0.00 77 1010.1
20260509025751 64 62 2.0 8.0 0.00 0.00 0.00 77 1009.6
20260509024809 63 272 1.0 6.0 0.00 0.00 0.00 77 1009.3
20260509023811 63 281 1.0 7.0 0.00 0.00 0.00 80 1008.6
20260509022825 62 53 1.0 7.0 0.00 0.00 0.00 81 1008.5
20260509021752 61 315 0.0 3.0 0.00 0.00 0.00 83 1008.2
20260509020734 61 202 0.0 0.0 0.00 0.00 0.00 84 1007.8
20260509015722 61 162 0.0 0.0 0.00 0.00 0.00 85 1007.6
20260509014648 61 162 0.0 0.0 0.00 0.00 0.00 83 1007.6
20260509011346 62 21 0.0 0.0 0.00 0.00 0.00 85 1007.1
20260509010359 63 21 0.0 0.0 0.00 0.00 0.00 84 1007.4
20260509005404 63 21 0.0 0.0 0.00 0.00 0.00 82 1007.6
20260509003241 64 21 0.0 0.0 0.00 0.00 0.00 80 1007.4
20260509001033 65 219 0.0 0.0 0.00 0.00 0.00 77 1007.3
20260509000004 66 219 0.0 0.0 0.00 0.00 0.00 72 1007.4
20260508235005 67 339 0.0 9.0 0.00 0.00 0.00 72 1007.8
20260508233959 69 305 0.0 9.0 0.00 0.00 0.00 69 1008.6
20260508233019 70 58 0.0 0.0 0.00 0.00 0.00 65 1008.9
20260508232034 71 300 0.0 1.0 0.00 0.00 0.00 61 1008.9
20260508231037 72 251 0.0 0.0 0.00 0.00 0.00 64 1008.7
20260508230028 72 26 0.0 1.0 0.00 0.00 0.00 57 1008.6
20260508225044 73 327 0.0 0.0 0.00 0.00 0.00 56 1008.6
20260508224015 74 329 0.0 3.0 0.00 0.00 0.00 53 1008.5
20260508222952 74 295 0.0 7.0 0.00 0.00 0.00 54 1008.5
20260508221951 75 214 1.0 8.0 0.00 0.00 0.00 53 1008.1
20260508221007 76 355 2.0 8.0 0.00 0.00 0.00 51 1008.1
20260508220028 77 296 2.0 7.0 0.00 0.00 0.00 48 1008.0
20260508213957 77 217 2.0 11.0 0.00 0.00 0.00 52 1008.1
20260508212948 77 189 3.0 11.0 0.00 0.00 0.00 52 1008.1
20260508211934 77 203 2.0 7.0 0.00 0.00 0.00 49 1008.2
20260508203548 76 211 3.0 8.0 0.00 0.00 0.00 51 1009.1
20260508201509 75 269 2.0 11.0 0.00 0.00 0.00 58 1009.5
20260508200452 75 286 2.0 8.0 0.00 0.00 0.00 52 1009.8
20260508195443 75 263 3.0 11.0 0.00 0.00 0.00 59 1009.9
20260508194446 75 306 3.0 11.0 0.00 0.00 0.00 55 1010.2
20260508193431 75 321 2.0 9.0 0.00 0.00 0.00 55 1010.2
20260508192421 74 218 2.0 9.0 0.00 0.00 0.00 55 1010.4
20260508191440 74 281 2.0 8.0 0.00 0.00 0.00 57 1010.6
20260508190420 74 265 1.0 6.0 0.00 0.00 0.00 59 1010.7
20260508185433 74 339 3.0 8.0 0.00 0.00 0.00 55 1010.9
20260508183228 74 269 3.0 10.0 0.00 0.00 0.00 53 1011.2
20260508182220 73 314 3.0 10.0 0.00 0.00 0.00 56 1011.3
20260508181202 73 258 3.0 10.0 0.00 0.00 0.00 60 1011.5
20260508180207 72 146 3.0 8.0 0.00 0.00 0.00 59 1011.9
20260508174056 71 159 2.0 7.0 0.00 0.00 0.00 62 1012.2
20260508173105 70 196 1.0 10.0 0.00 0.00 0.00 62 1012.3
20260508172108 69 286 3.0 10.0 0.00 0.00 0.00 64 1012.5
20260508171102 69 339 2.0 9.0 0.00 0.00 0.00 62 1012.8
20260508170118 68 202 3.0 10.0 0.00 0.00 0.00 65 1013.1
20260508165102 68 302 4.0 10.0 0.00 0.00 0.00 64 1013.2